Weather in Schebetovka

Russia / Republic of Crimea     44°56′11″N   35°09′19″E
temp.,
°C
wind,
m/s
gust,
m/s
humid.,
%
clouds,
%
prec.,
mm/h
press.,
hPa
HPBL,
m
25 february, thu
thu2500:00−3nne346436 0.0 1036240
03:00−3n346542 0.0 1035196
06:00−3nnw34721 0.0 1036165
09:00−1nnw236522 0.0 1036193
12:00+3nne015170 0.0 1035304
15:00+4ssw125866 0.0 1034380
18:00+3sw238064 0.0 1033130
21:00+3wsw238572 0.0 1033123
26 february, fri
fri2600:00+3w128698 0.0 103296
03:00+4sw118599 0.0 103290
06:00+4wsw118698 0.0 103071
09:00+5wsw118599 0.0 103063
12:00+8ssw237496 0.0 1029247
15:00+10sw346982 0.0 1028696
18:00+8wsw238581 0.0 1027109
21:00+6sw469551 0.0 1026155
27 february, sat
sat2700:00+6sw510936 0.0 1024254
03:00+5sw57934 0.0 1023225
06:00+5sw45934 0.0 1021155
09:00+7sw46894 0.0 1021249
12:00+10sw56761 0.0 1020458
15:00+10sw457525 0.0 1018385
18:00+8sw238496 0.1 1017177
21:00+7nnw138998 0.2 1017175
28 february, sun
sun2800:00+6nnw5894100 2.9 1016487
03:00+4nnw61094100 3.6 1016631
06:00+3nw7117477 0.1 1016792
09:00+3nw8118558 0.1 1018843
12:00+4nw7107889 0.1 10191044
15:00+5nw686989 0.3 10201160
18:00+3nw578096 0.2 1020692
21:00+2nw589097 0.6 1023507
1 march, mon
mon100:00+2nw478994 0.1 1024458
03:00+1nnw589377 0.1 1025522
06:00+1nw589296 0.2 1026520
09:00+1nw579494 0.5 1028449
12:00+1nnw479496 0.7 1030457
15:00+3n577891 0.9 1030756
18:00+2n577948 0.1 1031800
21:000nnw478257 0.1 1032419